"Pseudo-MPEC" for C11EPT5

Created 2025 Feb 6 14:31:05 UT using Find_Orb

Click here for an explanation of pseudo-MPECs

 
 Astrometry: 
     C11EPT5* C2025 02 04.39978509 37 04.490+47 43 06.96   ~24AH 23.08GVNEOCPV00
     C11EPT5  C2025 02 04.40541909 37 03.623+47 43 14.95   ~24AH 22.50GVNEOCPV00
     C11EPT5  C2025 02 04.41101109 37 02.734+47 43 22.76   ~24AH 22.41GVNEOCPV00
     C11EPT5  C2025 02 04.41661809 37 01.859+47 43 30.43   ~24AH 21.71GVNEOCPV00
     C11EPT5  C2025 02 04.52519009 36 45.580+47 45 56.00   ~24Dl 20.6 RVNEOCP291
     C11EPT5  C2025 02 04.54023009 36 43.430+47 46 15.90   ~24Dl 22.3 RVNEOCP291
     C11EPT5  C2025 02 05.17958009 35 21.490+48 02 06.10   ~2562 23.3 RVNEOCP291
     C11EPT5  C2025 02 05.19456009 35 19.140+48 02 31.30   ~2562x23.0 RVNEOCP291
     C11EPT5  C2025 02 05.20972009 35 16.710+48 02 55.00   ~2562 22.6 RVNEOCP291
     C11EPT5 KC2025 02 05.42990309 34 40.228+48 08 20.40   ~25BH 21.13GVNEOCPV06
     C11EPT5 KC2025 02 05.43468909 34 39.479+48 08 27.20   ~25BH 22.56GVNEOCPV06
     C11EPT5 KC2025 02 05.44064809 34 38.478+48 08 35.27   ~25BH 22.55GVNEOCPV06
     C11EPT5 KC2025 02 05.45214409 34 36.599+48 08 50.89   ~25BH 22.76GVNEOCPV06
     C11EPT5  C2025 02 06.17174009 32 55.350+48 26 29.10   ~2662 23.0 RVNEOCP291
     C11EPT5  C2025 02 06.18385009 32 53.250+48 26 48.80   ~2662 22.4 RVNEOCP291
     C11EPT5  C2025 02 06.19597009 32 51.220+48 27 08.40   ~2662       VNEOCP291
     C11EPT5 mC2025 02 06.28650509 32 35.372+48 29 30.91   ~267H 22.43GVNEOCPV00
     C11EPT5 mC2025 02 06.28730109 32 35.196+48 29 32.06   ~267H 22.76GVNEOCPV00
     C11EPT5 mC2025 02 06.28809609 32 35.131+48 29 33.07   ~267H 22.51GVNEOCPV00
     C11EPT5 mC2025 02 06.28889209 32 34.973+48 29 34.26   ~267H 22.17GVNEOCPV00

Station data:
(291) LPL/Spacewatch II  (N31.961669 W111.599905)  US/Arizona.  Observers J.
   V. Scotti, R. S. McMillan. 1.8-m f/2.7 reflector + CCD.
(V00) Kitt Peak-Bok  (N31.963125 W111.600190)  US/Arizona.  Observers T. A.
   Pruyne, B. M. Africano, E. J. Christensen, G. A. Farneth, D. C. Fuls, A.
   R. Gibbs, A. D. Grauer, H. Gröller, J. A. Johnson, R. A. Kowalski, S. M.
   Larson, G. J. Leonard, D. Rankin, R. L. Seaman, F. C. Shelly, K. W.
   Wierzchoś. 2.25-m reflector + 4x4K mosaic CCD.
(V06) Catalina Sky Survey-Kuiper  (N32.416871 W110.732550)  US/Arizona.
   Observers T. A. Pruyne, B. M. Africano, E. J. Christensen, G. A. Farneth,
   D. C. Fuls, A. R. Gibbs, A. D. Grauer, H. Gröller, J. A. Johnson, R. A.
   Kowalski, S. M. Larson, G. J. Leonard, D. Rankin, R. L. Seaman, F. C.
   Shelly, K. W. Wierzchoś. 1.55-m reflector + CCD.

Orbital elements:  C11EPT5
   Perihelion 2025 Apr 21.14437 +/- 0.154 TT =  3:27:53 (JD 2460786.64437)
Epoch 2025 Feb  6.0 TT = JDT 2460712.5   Earth MOID: 0.0217   Ma: 0.0312
M 313.85219382 +/- 0.29             (J2000 ecliptic)             AutoNEOCP
n   0.62240475 +/- 0.00309          Peri.  223.06465 +/- 0.17
a   1.35858698 +/- 0.00448          Node   356.38628 +/- 0.23
e   0.3465692 +/- 0.00287           Incl.    7.74722 +/- 0.050
P   1.584/578.391d         H 24.71  G  0.15   U  8.9
q 0.88774252 +/- 0.000992    Q 1.82943144 +/- 0.00993
19 of 20 observations 2025 Feb. 4-6 (45.3 hr); mean residual 0".33
Residuals in arcseconds: 
250204 V00  .17+  .02-    250205 291( .12-  1.8+)   250206 291  .10-  .09+    
250204 V00  .25+  .08+    250205 291  .40-  1.2+    250206 291  .09+  .07+    
250204 V00  .02+  .09+    250205 V06  .08-  .60-    250206 V00  .21-  .17+    
250204 V00  .06-  .04-    250205 V06  .28+  .35-    250206 V00  .55-  .10+    
250204 291  .15-  .31-    250205 V06  .03+  .40-    250206 V00  .21+  .10-    
250204 291  .13-  .05-    250205 V06  .03-  .37-    250206 V00  .05+  .12-    
250205 291  .06-  .82+    250206 291  .62+  .10+    

Ephemerides (geocentric):
Date (UTC) HH   RA             Dec           delta  r     elong  mag " sig PA
---- --------  ------------   ------------  ------ ------ -----  --- --------
2025 02 06 15  09 31 41.420   +48 37 38.71  .18868 1.1488 146.8 22.6 .211  68
2025 02 06 16  09 31 34.812   +48 38 40.28  .18847 1.1485 146.8 22.6 .221  68
2025 02 06 17  09 31 28.184   +48 39 41.85  .18825 1.1483 146.8 22.6 .232  69
2025 02 06 18  09 31 21.535   +48 40 43.43  .18803 1.1481 146.7 22.6 .244  69
2025 02 06 19  09 31 14.865   +48 41 45.00  .18781 1.1479 146.7 22.6 .255  69
2025 02 06 20  09 31 08.176   +48 42 46.58  .18760 1.1476 146.7 22.6 .266  69
2025 02 06 21  09 31 01.465   +48 43 48.16  .18738 1.1474 146.7 22.6 .278  69
2025 02 06 22  09 30 54.734   +48 44 49.74  .18716 1.1472 146.6 22.6 .290  70
2025 02 06 23  09 30 47.982   +48 45 51.32  .18695 1.1470 146.6 22.6 .302  70
2025 02 07 00  09 30 41.210   +48 46 52.91  .18673 1.1467 146.6 22.6 .314  70
2025 02 07 01  09 30 34.416   +48 47 54.49  .18652 1.1465 146.5 22.6 .327  70
2025 02 07 02  09 30 27.602   +48 48 56.07  .18630 1.1463 146.5 22.6 .340  70
2025 02 07 03  09 30 20.767   +48 49 57.65  .18608 1.1460 146.5 22.6 .352  70
2025 02 07 04  09 30 13.911   +48 50 59.24  .18587 1.1458 146.5 22.6 .365  70
2025 02 07 05  09 30 07.034   +48 52 00.82  .18565 1.1456 146.4 22.6 .379  70
2025 02 07 06  09 30 00.136   +48 53 02.41  .18544 1.1454 146.4 22.6 .392  70
2025 02 07 07  09 29 53.217   +48 54 03.99  .18522 1.1451 146.4 22.6 .405  70
2025 02 07 08  09 29 46.276   +48 55 05.57  .18501 1.1449 146.4 22.6 .419  71
2025 02 07 09  09 29 39.315   +48 56 07.15  .18479 1.1447 146.3 22.6 .433  71
2025 02 07 10  09 29 32.332   +48 57 08.73  .18458 1.1445 146.3 22.6 .447  71
2025 02 07 11  09 29 25.328   +48 58 10.31  .18436 1.1442 146.3 22.6 .462  71
2025 02 07 12  09 29 18.302   +48 59 11.89  .18415 1.1440 146.2 22.6 .476  71
2025 02 07 13  09 29 11.255   +49 00 13.47  .18393 1.1438 146.2 22.6 .491  71
2025 02 07 14  09 29 04.187   +49 01 15.05  .18372 1.1436 146.2 22.6 .506  71
2025 02 07 15  09 28 57.097   +49 02 16.62  .18350 1.1433 146.2 22.6 .521  71
2025 02 07 16  09 28 49.985   +49 03 18.19  .18329 1.1431 146.1 22.6 .536  71
2025 02 07 17  09 28 42.852   +49 04 19.76  .18308 1.1429 146.1 22.6 .552  71
2025 02 07 18  09 28 35.697   +49 05 21.33  .18286 1.1427 146.1 22.6 .567  71
2025 02 07 19  09 28 28.521   +49 06 22.90  .18265 1.1424 146.0 22.6 .583  71
2025 02 07 20  09 28 21.323   +49 07 24.46  .18244 1.1422 146.0 22.6 .599  71
2025 02 07 21  09 28 14.102   +49 08 26.02  .18222 1.1420 146.0 22.6 .615  71
2025 02 07 22  09 28 06.860   +49 09 27.58  .18201 1.1418 146.0 22.6 .632  71
2025 02 07 23  09 27 59.596   +49 10 29.14  .18180 1.1415 145.9 22.6 .648  71
2025 02 08 00  09 27 52.310   +49 11 30.69  .18158 1.1413 145.9 22.6 .665  71
2025 02 08 01  09 27 45.002   +49 12 32.24  .18137 1.1411 145.9 22.6 .682  71
2025 02 08 02  09 27 37.672   +49 13 33.78  .18116 1.1409 145.8 22.6 .700  71
2025 02 08 03  09 27 30.320   +49 14 35.32  .18094 1.1406 145.8 22.6 .717  71
2025 02 08 04  09 27 22.945   +49 15 36.86  .18073 1.1404 145.8 22.6 .735  71
2025 02 08 05  09 27 15.548   +49 16 38.39  .18052 1.1402 145.7 22.6 .752  71
2025 02 08 06  09 27 08.129   +49 17 39.92  .18031 1.1400 145.7 22.5 .770  71
2025 02 08 07  09 27 00.687   +49 18 41.44  .18009 1.1397 145.7 22.5 .789  71
2025 02 08 08  09 26 53.223   +49 19 42.96  .17988 1.1395 145.7 22.5 .807  71
2025 02 08 09  09 26 45.737   +49 20 44.48  .17967 1.1393 145.6 22.5 .826  71
2025 02 08 10  09 26 38.228   +49 21 45.99  .17946 1.1391 145.6 22.5 .845  71
2025 02 08 11  09 26 30.696   +49 22 47.49  .17925 1.1388 145.6 22.5 .864  71
2025 02 08 12  09 26 23.142   +49 23 48.99  .17903 1.1386 145.5 22.5 .883  71
2025 02 08 13  09 26 15.564   +49 24 50.49  .17882 1.1384 145.5 22.5 .903  71
2025 02 08 14  09 26 07.964   +49 25 51.98  .17861 1.1382 145.5 22.5 .922  71